Regional Weather Roundup
Issued by NWS

Home | Current Version | Previous Version | Graphics & Text | Print | Product List | Glossary On
Versions: 1 2 3 4 5 6 7 8 9 10 11 12 13 14 15 16 17 18 19 20 21 22 23 24 25 26 27 28 29 30 31 32 33 34 35 36 37 38 39 40 41 42 43 44 45 46 47 48 49 50
956
ASUS43 KFSD 210602
RWRSD

WEATHER ROUNDUP FOR SOUTH DAKOTA
NATIONAL WEATHER SERVICE SIOUX FALLS SD
1200 AM CST WED FEB 21 2018

NOTE: "FAIR" INDICATES FEW OR NO CLOUDS BELOW 12,000 FEET WITH NO
SIGNIFICANT WEATHER AND/OR OBSTRUCTIONS TO VISIBILITY.


SDZ001>005-009-010-012>017-210700-
NORTHWEST AND NORTH CENTRAL SOUTH DAKOTA

CITY           SKY/WX    TMP DP  RH WIND       PRES   REMARKS
BUFFALO          N/A     -9 -16  71 W9        30.13R WCI -26
FAITH            N/A     -9 -13  83 S7        30.28R WCI -24
MOBRIDGE       CLEAR     -9 -15  75 SE6       30.32R WCI -22
$$

SDZ012>016-024>037-041>051-057-063-072>074-210700-
SOUTHWEST AND SOUTH CENTRAL SOUTH DAKOTA

CITY           SKY/WX    TMP DP  RH WIND       PRES   REMARKS
RAPID CTY ARPT CLEAR    -13 -17  82 CALM      30.25R
PIERRE         NOT AVBL
CUSTER         CLEAR     -3 -12  65 CALM      30.05R
ELLSWORTH AFB  PTCLDY    -2  -6  81 W3        30.23R
PHILIP         CLEAR    -14 -18  82 NW6       30.37R WCI -28
PINE RIDGE     CLEAR    -17 -22  78 W5        30.28R WCI -30
SPEARFISH        N/A      0 -15  50 CALM      30.17R
WINNER         FAIR      -2 -11  65 SW9       30.40R WCI -18
$$

SDZ004>011-016>023-039-040-210700-
NORTHEAST SOUTH DAKOTA

CITY           SKY/WX    TMP DP  RH WIND       PRES   REMARKS
ABERDEEN       CLEAR     -8 -13  78 SW13      30.38R WCI -28
WATERTOWN      CLEAR     -2  -6  83 W10       30.34R WCI -19
BROOKINGS      CLOUDY     0  -5  79 NW10      30.36R WCI -16
SISSETON         N/A      3  -4  72 W10       30.35R WCI -12
$$

SDZ017-020-022-023-036>040-048>070-210700-
SOUTHEAST SOUTH DAKOTA

CITY           SKY/WX    TMP DP  RH WIND       PRES   REMARKS
SIOUX FALLS    CLOUDY     1  -4  79 W10       30.41R WCI -15
HURON          CLEAR     -4  -9  79 W6        30.43R WCI -16
CHAMBERLAIN    CLEAR     -2  -8  77 SW9       30.42R WCI -18
MITCHELL       CLEAR      1  -5  75 W10       30.46R WCI -15
YANKTON        CLOUDY     1  -4  79 W10       30.47R WCI -15
$$

ABBREVIATIONS USED IN REMARKS
   TC - TEMPERATURE IN CELSIUS
  WCI - WIND CHILL INDEX
   HX - HEAT INDEX
  VSB - VISIBILITY





USA.gov is the U.S. government's official web portal to all federal, state and local government web resources and services.